Home > Weather > Nikšić > Past weeks

Flag for Montenegro Weather for the Past 2 Weeks in Nikšić, Montenegro

Now
33 °F

Overcast.


Feels Like: 33 °F
Forecast: 25 / 41 °F
Wind: 1 mph from North

Location: Niksic

Current Time: Feb 11, 2016 at 8:48:07 PM

Latest Report: Feb 11, 2016 at 7:00 PM


Visibility: 6 mi

Pressure: 29.87 "Hg (27.59 "Hg at 635m altitude)

Humidity: 99%

Dew point: 32 °F

Location of NikšićLocation

Historic Weather in Nikšić — Graph

°F

Nikšić Temperature Yesterday

Maximum temperature yesterday: 48 °F (at 12:00 PM)
Minimum temperature yesterday: 36 °F (at 9:00 PM)
Average temperature yesterday: 43 °F

High & Low Weather Summary for the Past Weeks

 TemperatureHumidityPressure
High60 °F (Feb 2, 2:00 PM)100% (Jan 27, 7:00 PM)30.58 "Hg (Jan 27, 7:00 PM)
Low25 °F (Feb 6, 7:00 AM)27% (Feb 6, 2:00 PM)29.44 "Hg (Feb 10, 1:00 PM)
Average40 °F90%30.20 "Hg
* Reported Jan 27 7:00 PM — Feb 11 7:00 PM, Nikšić, Weather by CustomWeather, © 2016

Note: Actual official high and low records may vary slightly from our data, if they occured in-between our weather recording intervals... More about our weather records

Advertising

Nikšić Weather History for the Previous 24 Hours

 ConditionsComfort  
Time TempWeatherWind HumidityBarometerVisibility
7:00 PM
Thu, Feb 11
33 °FOvercast.1 mph99%29.87 "Hg6 mi
6:00 PM32 °FLight rain. Overcast.No wind98%29.86 "Hg6 mi
5:00 PM32 °FLight snow. Overcast.1 mph98%29.86 "Hg6 mi
4:00 PM33 °FLight snow. Overcast.1 mph100%29.85 "Hg6 mi
3:00 PM33 °FLight snow. Overcast.1 mph99%29.85 "Hg6 mi
2:00 PM33 °FLight snow. Overcast.2 mph99%29.86 "Hg6 mi
1:00 PM34 °FLight snow. Overcast.1 mph99%29.88 "Hg9 mi
12:00 PM34 °FLight snow. Overcast.1 mph98%29.90 "Hg11 mi
11:00 AM35 °FLight snow. Overcast.No wind97%29.92 "Hg11 mi
10:00 AM33 °FOvercast.1 mph99%29.92 "Hg12 mi
9:00 AM32 °FOvercast.No wind98%29.92 "Hg12 mi
8:00 AM31 °FOvercast.No wind100%29.90 "Hg12 mi
7:00 AM31 °FOvercast.No wind99%29.90 "Hg12 mi
4:00 AM31 °FPassing clouds.3 mph98%29.85 "Hg12 mi
1:00 AM33 °FPassing clouds.1 mph100%29.80 "Hg12 mi
10:00 PM
Wed, Feb 10
38 °FPassing clouds.3 mph99%29.73 "Hg9 mi
9:00 PM36 °FOvercast.2 mph100%29.68 "Hg9 mi
8:00 PM38 °FOvercast.2 mph99%29.66 "Hg6 mi
Weather by CustomWeather, © 2016

See weather overviewHow to use our weather pages